Time,TemperatureF,DewpointF,PressureIn,WindDirection,WindDirectionDegrees,WindSpeedMPH,WindSpeedGustMPH,Humidity,HourlyPrecipIn,Conditions,Clouds,dailyrainin,SolarRadiationWatts/m^2,SoftwareType,DateUTC
2013-02-25 00:07:00,28.4,27.0,30.16,NE,34,2.0,4.0,95,0.00,,,0.00,0,weatherlink.com 1.10,2013-02-25 06:07:00,
2013-02-25 00:22:00,28.1,27.0,30.14,ENE,58,3.0,4.0,95,0.00,,,0.00,0,weatherlink.com 1.10,2013-02-25 06:22:00,
2013-02-25 00:37:00,27.6,26.0,30.15,NNW,342,0.0,3.0,95,0.00,,,0.00,0,weatherlink.com 1.10,2013-02-25 06:37:00,
2013-02-25 00:52:00,27.9,27.0,30.18,NNE,30,0.0,3.0,95,0.00,,,0.00,0,weatherlink.com 1.10,2013-02-25 06:52:00,
2013-02-25 01:07:00,28.2,27.0,30.18,NNE,14,0.0,2.0,95,0.00,,,0.00,0,weatherlink.com 1.10,2013-02-25 07:07:00,
2013-02-25 01:22:00,28.1,27.0,30.18,NNW,329,0.0,1.0,95,0.00,,,0.00,0,weatherlink.com 1.10,2013-02-25 07:22:00,
2013-02-25 01:37:00,27.9,27.0,30.17,NNW,343,0.0,2.0,95,0.00,,,0.00,0,weatherlink.com 1.10,2013-02-25 07:37:00,
2013-02-25 01:52:00,27.9,27.0,30.16,NNW,346,0.0,3.0,95,0.00,,,0.00,0,weatherlink.com 1.10,2013-02-25 07:52:00,
2013-02-25 02:07:00,28.3,27.0,30.17,North,5,0.0,3.0,95,0.00,,,0.00,0,weatherlink.com 1.10,2013-02-25 08:07:00,
2013-02-25 02:22:00,28.3,27.0,30.18,NNW,336,0.0,0.0,95,0.00,,,0.00,0,weatherlink.com 1.10,2013-02-25 08:22:00,
2013-02-25 02:37:00,27.8,27.0,30.16,NNW,342,0.0,3.0,95,0.00,,,0.00,0,weatherlink.com 1.10,2013-02-25 08:37:00,
2013-02-25 02:52:00,28.1,27.0,30.17,NNW,340,0.0,0.0,95,0.00,,,0.00,0,weatherlink.com 1.10,2013-02-25 08:52:00,
2013-02-25 03:07:00,28.1,27.0,30.17,NNW,329,0.0,0.0,95,0.00,,,0.00,0,weatherlink.com 1.10,2013-02-25 09:07:00,
2013-02-25 03:23:00,28.7,28.0,30.16,NW,322,0.0,4.0,95,0.00,,,0.00,0,weatherlink.com 1.10,2013-02-25 09:23:00,
2013-02-25 03:38:00,29.3,28.0,30.17,NNW,327,0.0,0.0,96,0.00,,,0.00,0,weatherlink.com 1.10,2013-02-25 09:38:00,
2013-02-25 03:53:00,29.6,29.0,30.12,North,5,0.0,3.0,96,0.00,,,0.00,0,weatherlink.com 1.10,2013-02-25 09:53:00,
2013-02-25 04:08:00,30.0,29.0,30.16,NNW,342,0.0,2.0,96,0.00,,,0.00,0,weatherlink.com 1.10,2013-02-25 10:08:00,
2013-02-25 04:23:00,30.2,29.0,30.14,North,360,0.0,5.0,96,0.00,,,0.00,0,weatherlink.com 1.10,2013-02-25 10:23:00,
2013-02-25 04:38:00,30.8,30.0,30.16,ENE,60,3.0,7.0,96,0.00,,,0.00,0,weatherlink.com 1.10,2013-02-25 10:38:00,
2013-02-25 04:53:00,30.9,30.0,30.15,ENE,69,3.0,6.0,96,0.00,,,0.00,0,weatherlink.com 1.10,2013-02-25 10:53:00,
2013-02-25 05:08:00,30.7,30.0,30.16,ENE,70,3.0,6.0,96,0.00,,,0.00,0,weatherlink.com 1.10,2013-02-25 11:08:00,
2013-02-25 05:23:00,30.6,30.0,30.16,NE,49,0.0,4.0,96,0.00,,,0.00,0,weatherlink.com 1.10,2013-02-25 11:23:00,
2013-02-25 05:38:00,30.5,30.0,30.16,NE,49,0.0,1.0,96,0.00,,,0.00,0,weatherlink.com 1.10,2013-02-25 11:38:00,
2013-02-25 05:53:00,30.4,29.0,30.17,NE,49,0.0,0.0,96,0.00,,,0.00,0,weatherlink.com 1.10,2013-02-25 11:53:00,
2013-02-25 06:08:00,30.2,29.0,30.16,NW,325,0.0,1.0,96,0.00,,,0.00,0,weatherlink.com 1.10,2013-02-25 12:08:00,
2013-02-25 06:23:00,30.0,29.0,30.16,NNE,14,0.0,4.0,96,0.00,,,0.00,0,weatherlink.com 1.10,2013-02-25 12:23:00,
2013-02-25 06:38:00,29.5,29.0,30.16,NNW,346,1.0,5.0,96,0.00,,,0.00,0,weatherlink.com 1.10,2013-02-25 12:38:00,
2013-02-25 06:53:00,28.4,27.0,30.14,NNW,343,0.0,4.0,95,0.00,,,0.00,0,weatherlink.com 1.10,2013-02-25 12:53:00,
2013-02-25 07:08:00,28.5,27.0,30.14,NNW,329,1.0,4.0,95,0.00,,,0.00,0,weatherlink.com 1.10,2013-02-25 13:08:00,
2013-02-25 07:23:00,27.9,27.0,30.14,WNW,298,0.0,6.0,95,0.00,,,0.00,0,weatherlink.com 1.10,2013-02-25 13:23:00,
2013-02-25 07:38:00,28.2,27.0,30.15,North,360,0.0,6.0,95,0.00,,,0.00,7,weatherlink.com 1.10,2013-02-25 13:38:00,
2013-02-25 07:53:00,28.6,27.0,30.15,NNW,340,0.0,8.0,95,0.00,,,0.00,18,weatherlink.com 1.10,2013-02-25 13:53:00,
2013-02-25 08:08:00,29.1,28.0,30.15,NNE,13,0.0,7.0,95,0.00,,,0.00,28,weatherlink.com 1.10,2013-02-25 14:08:00,
2013-02-25 08:23:00,29.4,28.0,30.16,NW,316,0.0,5.0,95,0.00,,,0.00,42,weatherlink.com 1.10,2013-02-25 14:23:00,
2013-02-25 08:38:00,29.7,29.0,30.16,NNW,336,0.0,4.0,95,0.00,,,0.00,70,weatherlink.com 1.10,2013-02-25 14:38:00,
2013-02-25 08:53:00,29.7,28.0,30.18,North,355,0.0,5.0,94,0.00,,,0.00,109,weatherlink.com 1.10,2013-02-25 14:53:00,
2013-02-25 09:08:00,29.0,27.0,30.18,NW,322,0.0,6.0,93,0.00,,,0.00,125,weatherlink.com 1.10,2013-02-25 15:08:00,
2013-02-25 09:23:00,28.0,26.0,30.18,NW,324,0.0,1.0,92,0.00,,,0.00,237,weatherlink.com 1.10,2013-02-25 15:23:00,
2013-02-25 09:38:00,28.0,26.0,30.17,NW,316,0.0,5.0,92,0.00,,,0.00,255,weatherlink.com 1.10,2013-02-25 15:38:00,
2013-02-25 09:53:00,29.3,27.0,30.17,NNW,338,2.0,5.0,91,0.00,,,0.00,387,weatherlink.com 1.10,2013-02-25 15:53:00,
2013-02-25 10:08:00,30.1,28.0,30.17,North,351,0.0,6.0,91,0.00,,,0.00,415,weatherlink.com 1.10,2013-02-25 16:08:00,
2013-02-25 10:23:00,31.1,29.0,30.17,North,355,0.0,5.0,90,0.00,,,0.00,494,weatherlink.com 1.10,2013-02-25 16:23:00,
2013-02-25 10:38:00,30.7,28.0,30.16,NNE,25,2.0,5.0,90,0.00,,,0.00,320,weatherlink.com 1.10,2013-02-25 16:38:00,
2013-02-25 10:53:00,31.8,29.0,30.16,North,355,2.0,4.0,90,0.01,,,0.01,594,weatherlink.com 1.10,2013-02-25 16:53:00,
2013-02-25 11:08:00,32.8,30.0,30.15,NNW,344,0.0,4.0,89,0.01,,,0.01,605,weatherlink.com 1.10,2013-02-25 17:08:00,
2013-02-25 11:23:00,33.2,30.0,30.14,NNE,27,0.0,5.0,87,0.02,,,0.02,633,weatherlink.com 1.10,2013-02-25 17:23:00,
2013-02-25 11:38:00,33.6,30.0,30.13,North,5,1.0,9.0,87,0.03,,,0.03,656,weatherlink.com 1.10,2013-02-25 17:38:00,
2013-02-25 11:54:00,34.6,31.0,30.12,NNW,334,0.0,6.0,87,0.03,,,0.04,675,weatherlink.com 1.10,2013-02-25 17:54:00,
2013-02-25 12:09:00,34.6,31.0,30.11,NNW,333,1.0,7.0,85,0.03,,,0.04,687,weatherlink.com 1.10,2013-02-25 18:09:00,
2013-02-25 12:24:00,34.9,31.0,30.10,NNW,347,0.0,7.0,85,0.03,,,0.05,703,weatherlink.com 1.10,2013-02-25 18:24:00,
2013-02-25 12:39:00,35.1,30.0,30.10,NNW,335,1.0,5.0,83,0.02,,,0.05,714,weatherlink.com 1.10,2013-02-25 18:39:00,
2013-02-25 12:54:00,34.8,30.0,30.09,North,5,0.0,7.0,81,0.01,,,0.05,712,weatherlink.com 1.10,2013-02-25 18:54:00,
2013-02-25 13:09:00,34.8,29.0,30.09,North,355,0.0,4.0,80,0.01,,,0.05,717,weatherlink.com 1.10,2013-02-25 19:09:00,
2013-02-25 13:24:00,35.5,30.0,30.08,North,350,0.0,3.0,79,0.00,,,0.05,707,weatherlink.com 1.10,2013-02-25 19:24:00,
2013-02-25 13:39:00,35.4,29.0,30.09,NNE,19,0.0,4.0,77,0.00,,,0.05,707,weatherlink.com 1.10,2013-02-25 19:39:00,
2013-02-25 13:54:00,35.5,29.0,30.08,NNE,15,0.0,6.0,78,0.00,,,0.05,694,weatherlink.com 1.10,2013-02-25 19:54:00,
2013-02-25 14:09:00,36.6,31.0,30.08,NW,316,0.0,5.0,79,0.00,,,0.05,673,weatherlink.com 1.10,2013-02-25 20:09:00,
2013-02-25 14:24:00,36.9,30.0,30.07,North,350,1.0,6.0,76,0.00,,,0.05,645,weatherlink.com 1.10,2013-02-25 20:24:00,
2013-02-25 14:39:00,36.8,29.0,30.06,North,355,0.0,4.0,74,0.00,,,0.05,626,weatherlink.com 1.10,2013-02-25 20:39:00,
2013-02-25 14:54:00,36.4,29.0,30.06,NNW,348,3.0,5.0,75,0.00,,,0.05,603,weatherlink.com 1.10,2013-02-25 20:54:00,
2013-02-25 15:09:00,37.4,30.0,30.06,NNW,340,3.0,4.0,75,0.00,,,0.05,578,weatherlink.com 1.10,2013-02-25 21:09:00,
2013-02-25 15:24:00,37.4,29.0,30.05,NNW,343,0.0,4.0,73,0.00,,,0.05,541,weatherlink.com 1.10,2013-02-25 21:24:00,
2013-02-25 15:39:00,37.1,30.0,30.05,NNW,336,1.0,5.0,74,0.00,,,0.05,506,weatherlink.com 1.10,2013-02-25 21:39:00,
2013-02-25 15:54:00,38.0,30.0,30.05,NNW,344,0.0,3.0,74,0.00,,,0.05,468,weatherlink.com 1.10,2013-02-25 21:54:00,
2013-02-25 16:09:00,37.5,30.0,30.05,NNW,346,0.0,4.0,73,0.00,,,0.05,424,weatherlink.com 1.10,2013-02-25 22:09:00,
2013-02-25 16:24:00,36.8,29.0,30.05,North,350,0.0,4.0,72,0.00,,,0.05,378,weatherlink.com 1.10,2013-02-25 22:24:00,
2013-02-25 16:39:00,36.4,29.0,30.04,NNW,340,0.0,7.0,74,0.00,,,0.05,332,weatherlink.com 1.10,2013-02-25 22:39:00,
2013-02-25 16:54:00,36.2,29.0,30.03,NNW,345,0.0,3.0,74,0.00,,,0.05,281,weatherlink.com 1.10,2013-02-25 22:54:00,
2013-02-25 17:09:00,36.1,29.0,30.03,NNW,348,0.0,4.0,75,0.00,,,0.05,225,weatherlink.com 1.10,2013-02-25 23:09:00,
2013-02-25 17:24:00,35.2,28.0,30.03,NW,317,0.0,2.0,75,0.00,,,0.05,165,weatherlink.com 1.10,2013-02-25 23:24:00,
2013-02-25 17:39:00,34.3,28.0,30.02,NNW,332,1.0,3.0,77,0.00,,,0.05,107,weatherlink.com 1.10,2013-02-25 23:39:00,
2013-02-25 17:54:00,32.9,27.0,30.02,NNW,331,0.0,7.0,79,0.00,,,0.05,62,weatherlink.com 1.10,2013-02-25 23:54:00,
2013-02-25 18:09:00,32.3,27.0,30.02,NNW,335,0.0,5.0,80,0.00,,,0.05,21,weatherlink.com 1.10,2013-02-26 00:09:00,
2013-02-25 18:24:00,30.9,25.0,30.02,NNW,341,0.0,0.0,80,0.00,,,0.05,9,weatherlink.com 1.10,2013-02-26 00:24:00,
2013-02-25 18:39:00,29.5,25.0,30.02,NNW,341,0.0,0.0,82,0.01,,,0.06,0,weatherlink.com 1.10,2013-02-26 00:39:00,
2013-02-25 18:54:00,27.8,24.0,30.02,NNW,341,0.0,0.0,84,0.01,,,0.06,0,weatherlink.com 1.10,2013-02-26 00:54:00,
2013-02-25 19:09:00,26.9,23.0,30.02,NNW,341,0.0,0.0,86,0.01,,,0.06,0,weatherlink.com 1.10,2013-02-26 01:09:00,
2013-02-25 19:24:00,26.3,23.0,30.02,NNW,341,0.0,0.0,87,0.01,,,0.06,0,weatherlink.com 1.10,2013-02-26 01:24:00,
2013-02-25 19:39:00,25.5,23.0,30.02,NNW,341,0.0,0.0,88,0.00,,,0.06,0,weatherlink.com 1.10,2013-02-26 01:39:00,
2013-02-25 19:55:00,25.2,22.0,30.01,NNW,341,0.0,0.0,88,0.00,,,0.06,0,weatherlink.com 1.10,2013-02-26 01:55:00,
2013-02-25 20:10:00,25.0,22.0,30.01,NNW,341,0.0,0.0,89,0.00,,,0.06,0,weatherlink.com 1.10,2013-02-26 02:10:00,
2013-02-25 20:25:00,25.7,23.0,30.01,NNW,341,0.0,0.0,88,0.00,,,0.06,0,weatherlink.com 1.10,2013-02-26 02:25:00,
2013-02-25 20:40:00,24.9,22.0,30.01,NNW,341,0.0,1.0,88,0.00,,,0.06,0,weatherlink.com 1.10,2013-02-26 02:40:00,
2013-02-25 20:55:00,24.5,22.0,30.01,NNW,341,0.0,0.0,88,0.00,,,0.06,0,weatherlink.com 1.10,2013-02-26 02:55:00,
2013-02-25 21:10:00,23.1,20.0,30.01,NNW,341,0.0,2.0,89,0.00,,,0.06,0,weatherlink.com 1.10,2013-02-26 03:10:00,
2013-02-25 21:25:00,22.5,20.0,30.02,NNW,340,0.0,1.0,89,0.00,,,0.06,0,weatherlink.com 1.10,2013-02-26 03:25:00,
2013-02-25 21:40:00,22.2,20.0,30.02,NNW,340,0.0,2.0,90,0.00,,,0.06,0,weatherlink.com 1.10,2013-02-26 03:40:00,
2013-02-25 21:55:00,22.2,20.0,30.02,NNW,340,0.0,0.0,90,0.00,,,0.06,0,weatherlink.com 1.10,2013-02-26 03:55:00,
2013-02-25 22:10:00,22.2,20.0,30.02,NNW,340,0.0,0.0,91,0.00,,,0.06,0,weatherlink.com 1.10,2013-02-26 04:10:00,
2013-02-25 22:25:00,22.1,20.0,30.02,NNW,340,0.0,0.0,91,0.00,,,0.06,0,weatherlink.com 1.10,2013-02-26 04:25:00,
2013-02-25 22:40:00,22.0,20.0,30.01,NNW,340,0.0,1.0,91,0.00,,,0.06,0,weatherlink.com 1.10,2013-02-26 04:40:00,
2013-02-25 22:55:00,21.3,19.0,30.02,NNW,340,0.0,1.0,91,0.00,,,0.06,0,weatherlink.com 1.10,2013-02-26 04:55:00,
2013-02-25 23:10:00,20.9,19.0,30.00,NNW,328,0.0,4.0,91,0.00,,,0.06,0,weatherlink.com 1.10,2013-02-26 05:10:00,
2013-02-25 23:25:00,21.1,19.0,30.00,NW,319,0.0,5.0,91,0.00,,,0.06,0,weatherlink.com 1.10,2013-02-26 05:25:00,
2013-02-25 23:40:00,20.7,19.0,30.00,NW,319,0.0,0.0,91,0.00,,,0.06,0,weatherlink.com 1.10,2013-02-26 05:40:00,
2013-02-25 23:55:00,20.3,18.0,30.00,NW,319,0.0,0.0,91,0.00,,,0.06,0,weatherlink.com 1.10,2013-02-26 05:55:00,